Location: Sungai Igah
(2.7333°N, 114.2500°E)
Time: 22:02:32
(UTC+00:00)

ARIANE 5 R/B - Pass Details

Date: 14 June 2021
Orbit: 251 x 34695 km, 6.6° (Epoch: 24 July)

Event Time Altitude Azimuth Distance (km) Brightness Sun altitude
Exits shadow 20:23:11 37° 177° (S) 1,457 3.7 -26.1°
Maximum altitude 20:23:45 38° 164° (SSE) 1,567 3.9 -26.0°
Drops below altitude 10° 20:40:02 10° 100° (E) 8,183 8.4 -22.4°
Sets 21:03:41 0° 94° (E) 15,778 10.2 -17.1°
